Time,TemperatureF,DewpointF,PressureIn,WindDirection,WindDirectionDegrees,WindSpeedMPH,WindSpeedGustMPH,Humidity,HourlyPrecipIn,Conditions,Clouds,dailyrainin,SoftwareType,DateUTC
2013-04-02 00:01:00,30.1,-99.9,29.00,WSW,247,3.0,-999.0,-999,-99.99,,,-99.99,,2013-04-01 23:01:00,
2013-04-02 00:08:00,30.1,-99.9,29.01,SW,225,3.0,-999.0,-999,-99.99,,,-99.99,,2013-04-01 23:08:00,
2013-04-02 00:14:00,30.1,-99.9,29.01,SW,225,3.0,-999.0,-999,-99.99,,,-99.99,,2013-04-01 23:14:00,
2013-04-02 00:20:00,30.2,-99.9,29.01,SSW,202,8.0,-999.0,-999,-99.99,,,-99.99,,2013-04-01 23:20:00,
2013-04-02 00:26:00,30.4,-99.9,29.01,WSW,247,3.0,-999.0,-999,-99.99,,,-99.99,,2013-04-01 23:26:00,
2013-04-02 00:33:00,30.4,-99.9,29.01,South,180,3.0,-999.0,-999,-99.99,,,-99.99,,2013-04-01 23:33:00,
2013-04-02 00:39:00,30.5,-99.9,29.01,SSW,202,4.0,-999.0,-999,-99.99,,,-99.99,,2013-04-01 23:39:00,
2013-04-02 00:45:00,30.8,-99.9,29.01,ENE,67,2.0,-999.0,-999,-99.99,,,-99.99,,2013-04-01 23:45:00,
2013-04-02 00:54:00,30.6,-99.9,29.01,SSW,202,5.0,-999.0,-999,-99.99,,,-99.99,,2013-04-01 23:54:00,
2013-04-02 01:00:00,30.9,-99.9,29.01,WSW,247,6.0,-999.0,-999,-99.99,,,-99.99,,2013-04-02 00:00:00,
2013-04-02 01:06:00,30.8,-99.9,29.01,SSW,202,5.0,-999.0,-999,-99.99,,,-99.99,,2013-04-02 00:06:00,
2013-04-02 01:12:00,30.9,-99.9,29.01,SSW,202,4.0,-999.0,-999,-99.99,,,-99.99,,2013-04-02 00:12:00,
2013-04-02 01:20:00,30.9,-99.9,29.01,SW,225,-999.0,-999.0,-999,-99.99,,,-99.99,,2013-04-02 00:20:00,
2013-04-02 01:25:00,31.0,-99.9,29.01,ESE,112,-999.0,-999.0,-999,-99.99,,,-99.99,,2013-04-02 00:25:00,
2013-04-02 01:32:00,31.0,-99.9,29.01,WSW,247,-999.0,-999.0,-999,-99.99,,,-99.99,,2013-04-02 00:32:00,
2013-04-02 01:38:00,31.0,-99.9,29.01,SSW,202,3.0,-999.0,-999,-99.99,,,-99.99,,2013-04-02 00:38:00,
2013-04-02 01:45:00,31.1,-99.9,29.01,South,180,6.0,-999.0,-999,-99.99,,,-99.99,,2013-04-02 00:45:00,
2013-04-02 01:51:00,31.1,-99.9,29.01,SSE,157,5.0,-999.0,-999,-99.99,,,-99.99,,2013-04-02 00:51:00,
2013-04-02 01:58:00,31.1,-99.9,29.02,South,180,-999.0,-999.0,-999,-99.99,,,-99.99,,2013-04-02 00:58:00,
2013-04-02 02:04:00,30.9,-99.9,29.02,ESE,112,2.0,-999.0,-999,-99.99,,,-99.99,,2013-04-02 01:04:00,
2013-04-02 02:10:00,30.9,-99.9,29.02,SE,135,3.0,-999.0,-999,-99.99,,,-99.99,,2013-04-02 01:10:00,
2013-04-02 02:16:00,30.8,-99.9,29.02,South,180,6.0,-999.0,-999,-99.99,,,-99.99,,2013-04-02 01:16:00,
2013-04-02 02:23:00,30.9,-99.9,29.02,SW,225,5.0,-999.0,-999,-99.99,,,-99.99,,2013-04-02 01:23:00,
2013-04-02 02:29:00,31.0,-99.9,29.02,SSW,202,5.0,-999.0,-999,-99.99,,,-99.99,,2013-04-02 01:29:00,
2013-04-02 02:35:00,31.1,-99.9,29.02,SE,135,5.0,-999.0,-999,-99.99,,,-99.99,,2013-04-02 01:35:00,
2013-04-02 02:42:00,31.1,-99.9,29.02,WSW,247,4.0,-999.0,-999,-99.99,,,-99.99,,2013-04-02 01:42:00,
2013-04-02 02:48:00,31.1,-99.9,29.02,South,180,5.0,-999.0,-999,-99.99,,,-99.99,,2013-04-02 01:48:00,
2013-04-02 02:54:00,31.2,-99.9,29.02,SSE,157,5.0,-999.0,-999,-99.99,,,-99.99,,2013-04-02 01:54:00,
2013-04-02 03:00:00,31.1,-99.9,29.02,SW,225,5.0,-999.0,-999,-99.99,,,-99.99,,2013-04-02 02:00:00,
2013-04-02 03:06:00,31.1,-99.9,29.02,SW,225,1.0,-999.0,-999,-99.99,,,-99.99,,2013-04-02 02:06:00,
2013-04-02 03:13:00,31.0,-99.9,29.02,West,270,1.0,-999.0,-999,-99.99,,,-99.99,,2013-04-02 02:13:00,
2013-04-02 03:19:00,30.9,-99.9,29.02,ENE,67,3.0,-999.0,-999,-99.99,,,-99.99,,2013-04-02 02:19:00,
2013-04-02 03:25:00,31.0,-99.9,29.02,SW,225,2.0,-999.0,-999,-99.99,,,-99.99,,2013-04-02 02:25:00,
2013-04-02 03:31:00,30.9,-99.9,29.02,SW,225,3.0,-999.0,-999,-99.99,,,-99.99,,2013-04-02 02:31:00,
2013-04-02 03:38:00,30.8,-99.9,29.02,SSE,157,1.0,-999.0,-999,-99.99,,,-99.99,,2013-04-02 02:38:00,
2013-04-02 03:44:00,30.5,-99.9,29.02,ENE,67,2.0,-999.0,-999,-99.99,,,-99.99,,2013-04-02 02:44:00,
2013-04-02 03:50:00,30.2,-99.9,29.02,SSW,202,1.0,-999.0,-999,-99.99,,,-99.99,,2013-04-02 02:50:00,
2013-04-02 03:56:00,30.1,-99.9,29.01,East,90,3.0,-999.0,-999,-99.99,,,-99.99,,2013-04-02 02:56:00,
2013-04-02 04:03:00,30.0,-99.9,29.01,SW,225,0.0,-999.0,-999,-99.99,,,-99.99,,2013-04-02 03:03:00,
2013-04-02 04:09:00,29.5,-99.9,29.02,ESE,112,2.0,-999.0,-999,-99.99,,,-99.99,,2013-04-02 03:09:00,
2013-04-02 04:15:00,29.1,-99.9,29.01,East,90,0.0,-999.0,-999,-99.99,,,-99.99,,2013-04-02 03:15:00,
2013-04-02 04:21:00,28.2,-99.9,29.01,NW,315,0.0,-999.0,-999,-99.99,,,-99.99,,2013-04-02 03:21:00,
2013-04-02 04:30:00,27.3,-99.9,29.01,NNE,22,1.0,-999.0,-999,-99.99,,,-99.99,,2013-04-02 03:30:00,
2013-04-02 04:38:00,26.9,-99.9,29.01,ENE,67,1.0,-999.0,-999,-99.99,,,-99.99,,2013-04-02 03:38:00,
2013-04-02 04:45:00,26.5,-99.9,29.01,East,90,1.0,-999.0,-999,-99.99,,,-99.99,,2013-04-02 03:45:00,
2013-04-02 04:51:00,26.1,-99.9,29.01,NE,45,1.0,-999.0,-999,-99.99,,,-99.99,,2013-04-02 03:51:00,
2013-04-02 04:57:00,26.0,-99.9,29.01,ENE,67,3.0,-999.0,-999,-99.99,,,-99.99,,2013-04-02 03:57:00,
2013-04-02 05:02:00,26.0,-99.9,29.01,ENE,67,-999.0,-999.0,-999,-99.99,,,-99.99,,2013-04-02 04:02:00,
2013-04-02 05:05:00,26.0,-99.9,29.01,NE,45,-999.0,-999.0,-999,-99.99,,,-99.99,,2013-04-02 04:05:00,
2013-04-02 05:07:00,26.0,-99.9,29.01,East,90,0.0,-999.0,-999,-99.99,,,-99.99,,2013-04-02 04:07:00,
2013-04-02 05:13:00,26.0,-99.9,29.01,East,90,0.0,-999.0,-999,-99.99,,,-99.99,,2013-04-02 04:13:00,
2013-04-02 05:19:00,25.9,-99.9,29.01,North,0,2.0,-999.0,-999,-99.99,,,-99.99,,2013-04-02 04:19:00,
2013-04-02 05:25:00,25.8,-99.9,29.01,NE,45,1.0,-999.0,-999,-99.99,,,-99.99,,2013-04-02 04:25:00,
2013-04-02 05:32:00,25.9,-99.9,29.01,NNE,22,2.0,-999.0,-999,-99.99,,,-99.99,,2013-04-02 04:32:00,
2013-04-02 05:38:00,25.9,-99.9,29.01,ENE,67,2.0,-999.0,-999,-99.99,,,-99.99,,2013-04-02 04:38:00,
2013-04-02 05:44:00,25.8,-99.9,29.01,NNE,22,1.0,-999.0,-999,-99.99,,,-99.99,,2013-04-02 04:44:00,
2013-04-02 05:50:00,25.6,-99.9,29.01,NNE,22,0.0,-999.0,-999,-99.99,,,-99.99,,2013-04-02 04:50:00,
2013-04-02 05:57:00,25.4,-99.9,29.01,NNW,337,1.0,-999.0,-999,-99.99,,,-99.99,,2013-04-02 04:57:00,
2013-04-02 06:03:00,25.1,-99.9,29.01,ENE,67,0.0,-999.0,-999,-99.99,,,-99.99,,2013-04-02 05:03:00,
2013-04-02 06:09:00,24.8,-99.9,29.01,NE,45,0.0,-999.0,-999,-99.99,,,-99.99,,2013-04-02 05:09:00,
2013-04-02 06:15:00,24.4,-99.9,29.01,East,90,0.0,-999.0,-999,-99.99,,,-99.99,,2013-04-02 05:15:00,
2013-04-02 06:22:00,24.0,-99.9,29.02,NE,45,0.0,-999.0,-999,-99.99,,,-99.99,,2013-04-02 05:22:00,
2013-04-02 06:28:00,24.1,-99.9,29.02,NNE,22,0.0,-999.0,-999,-99.99,,,-99.99,,2013-04-02 05:28:00,
2013-04-02 06:34:00,23.9,-99.9,29.02,NE,45,2.0,-999.0,-999,-99.99,,,-99.99,,2013-04-02 05:34:00,
2013-04-02 06:40:00,24.0,-99.9,29.02,ENE,67,1.0,-999.0,-999,-99.99,,,-99.99,,2013-04-02 05:40:00,
2013-04-02 06:47:00,24.0,-99.9,29.02,NNE,22,2.0,-999.0,-999,-99.99,,,-99.99,,2013-04-02 05:47:00,
2013-04-02 06:53:00,24.4,-99.9,29.02,ENE,67,3.0,-999.0,-999,-99.99,,,-99.99,,2013-04-02 05:53:00,
2013-04-02 06:59:00,24.9,-99.9,29.02,ENE,67,4.0,-999.0,-999,-99.99,,,-99.99,,2013-04-02 05:59:00,
2013-04-02 07:06:00,25.9,-99.9,29.02,ENE,67,5.0,-999.0,-999,-99.99,,,-99.99,,2013-04-02 06:06:00,
2013-04-02 07:12:00,27.4,-99.9,29.02,ENE,67,3.0,-999.0,-999,-99.99,,,-99.99,,2013-04-02 06:12:00,
2013-04-02 07:18:00,28.0,-99.9,29.02,NNE,22,5.0,-999.0,-999,-99.99,,,-99.99,,2013-04-02 06:18:00,
2013-04-02 07:24:00,28.9,-99.9,29.03,ENE,67,6.0,-999.0,-999,-99.99,,,-99.99,,2013-04-02 06:24:00,
2013-04-02 07:31:00,30.9,-99.9,29.03,NE,45,2.0,-999.0,-999,-99.99,,,-99.99,,2013-04-02 06:31:00,
2013-04-02 07:37:00,32.9,-99.9,29.03,SW,225,1.0,-999.0,-999,-99.99,,,-99.99,,2013-04-02 06:37:00,
2013-04-02 07:43:00,34.7,-99.9,29.03,ENE,67,4.0,-999.0,-999,-99.99,,,-99.99,,2013-04-02 06:43:00,
2013-04-02 07:49:00,35.9,-99.9,29.04,ESE,112,2.0,-999.0,-999,-99.99,,,-99.99,,2013-04-02 06:49:00,
2013-04-02 07:58:00,36.7,-99.9,29.04,SE,135,5.0,-999.0,-999,-99.99,,,-99.99,,2013-04-02 06:58:00,
2013-04-02 08:05:00,37.0,-99.9,29.04,WNW,292,2.0,-999.0,-999,-99.99,,,-99.99,,2013-04-02 07:05:00,
2013-04-02 08:13:00,34.9,-99.9,29.04,East,90,5.0,-999.0,-999,-99.99,,,-99.99,,2013-04-02 07:13:00,
2013-04-02 08:19:00,33.5,-99.9,29.04,ENE,67,2.0,-999.0,-999,-99.99,,,-99.99,,2013-04-02 07:19:00,
2013-04-02 08:28:00,33.2,-99.9,29.04,ESE,112,2.0,-999.0,-999,-99.99,,,-99.99,,2013-04-02 07:28:00,
2013-04-02 08:34:00,33.6,-99.9,29.04,SE,135,3.0,-999.0,-999,-99.99,,,-99.99,,2013-04-02 07:34:00,
2013-04-02 08:41:00,33.7,-99.9,29.05,SE,135,5.0,-999.0,-999,-99.99,,,-99.99,,2013-04-02 07:41:00,
2013-04-02 08:47:00,34.2,-99.9,29.05,SE,135,4.0,-999.0,-999,-99.99,,,-99.99,,2013-04-02 07:47:00,
2013-04-02 08:53:00,34.5,-99.9,29.05,SE,135,3.0,-999.0,-999,-99.99,,,-99.99,,2013-04-02 07:53:00,
2013-04-02 09:00:00,34.7,-99.9,29.05,ESE,112,7.0,-999.0,-999,-99.99,,,-99.99,,2013-04-02 08:00:00,
2013-04-02 09:06:00,34.7,-99.9,29.05,SSE,157,6.0,-999.0,-999,-99.99,,,-99.99,,2013-04-02 08:06:00,
2013-04-02 09:12:00,34.8,-99.9,29.06,ESE,112,6.0,-999.0,-999,-99.99,,,-99.99,,2013-04-02 08:12:00,
2013-04-02 09:19:00,34.9,-99.9,29.06,SE,135,7.0,-999.0,-999,-99.99,,,-99.99,,2013-04-02 08:19:00,
2013-04-02 09:25:00,34.8,-99.9,29.06,WNW,292,5.0,-999.0,-999,-99.99,,,-99.99,,2013-04-02 08:25:00,
2013-04-02 09:31:00,34.9,-99.9,29.06,East,90,5.0,-999.0,-999,-99.99,,,-99.99,,2013-04-02 08:31:00,
2013-04-02 09:37:00,35.3,-99.9,29.06,South,180,4.0,-999.0,-999,-99.99,,,-99.99,,2013-04-02 08:37:00,
2013-04-02 09:44:00,35.4,-99.9,29.06,East,90,6.0,-999.0,-999,-99.99,,,-99.99,,2013-04-02 08:44:00,
2013-04-02 09:50:00,35.5,-99.9,29.06,SSE,157,7.0,-999.0,-999,-99.99,,,-99.99,,2013-04-02 08:50:00,
2013-04-02 09:56:00,35.8,-99.9,29.06,East,90,9.0,-999.0,-999,-99.99,,,-99.99,,2013-04-02 08:56:00,
2013-04-02 10:03:00,36.0,-99.9,29.06,ENE,67,5.0,-999.0,-999,-99.99,,,-99.99,,2013-04-02 09:03:00,
2013-04-02 10:09:00,36.3,-99.9,29.06,NW,315,7.0,-999.0,-999,-99.99,,,-99.99,,2013-04-02 09:09:00,
2013-04-02 10:15:00,36.8,-99.9,29.06,ESE,112,7.0,-999.0,-999,-99.99,,,-99.99,,2013-04-02 09:15:00,
2013-04-02 10:22:00,37.1,-99.9,29.06,NNW,337,8.0,-999.0,-999,-99.99,,,-99.99,,2013-04-02 09:22:00,
2013-04-02 14:14:00,36.8,-99.9,29.09,ESE,112,-999.0,-999.0,-999,-99.99,,,-99.99,,2013-04-02 13:14:00,
2013-04-02 14:20:00,38.0,-99.9,29.09,East,90,3.0,-999.0,-999,-99.99,,,-99.99,,2013-04-02 13:20:00,
2013-04-02 14:26:00,39.3,-99.9,29.09,ENE,67,5.0,-999.0,-999,-99.99,,,-99.99,,2013-04-02 13:26:00,
2013-04-02 14:33:00,40.3,-99.9,29.09,SE,135,5.0,-999.0,-999,-99.99,,,-99.99,,2013-04-02 13:33:00,
2013-04-02 14:39:00,41.9,-99.9,29.09,ESE,112,6.0,-999.0,-999,-99.99,,,-99.99,,2013-04-02 13:39:00,
2013-04-02 14:46:00,44.6,-99.9,29.09,SE,135,-999.0,-999.0,-999,-99.99,,,-99.99,,2013-04-02 13:46:00,
2013-04-02 14:52:00,46.8,-99.9,29.09,SE,135,4.0,-999.0,-999,-99.99,,,-99.99,,2013-04-02 13:52:00,
2013-04-02 14:58:00,49.4,-99.9,29.09,ENE,67,7.0,-999.0,-999,-99.99,,,-99.99,,2013-04-02 13:58:00,
2013-04-02 15:04:00,48.7,-99.9,29.08,West,270,7.0,-999.0,-999,-99.99,,,-99.99,,2013-04-02 14:04:00,
2013-04-02 15:11:00,44.6,-99.9,29.09,ENE,67,6.0,-999.0,-999,-99.99,,,-99.99,,2013-04-02 14:11:00,
2013-04-02 15:17:00,41.6,-99.9,29.09,SE,135,10.0,-999.0,-999,-99.99,,,-99.99,,2013-04-02 14:17:00,
2013-04-02 15:23:00,38.9,-99.9,29.09,East,90,15.0,-999.0,-999,-99.99,,,-99.99,,2013-04-02 14:23:00,
2013-04-02 15:29:00,37.1,-99.9,29.10,ESE,112,11.0,-999.0,-999,-99.99,,,-99.99,,2013-04-02 14:29:00,
2013-04-02 15:35:00,35.9,-99.9,29.10,ESE,112,-999.0,-999.0,-999,-99.99,,,-99.99,,2013-04-02 14:35:00,
2013-04-02 15:43:00,36.3,-99.9,29.10,SE,135,7.0,-999.0,-999,-99.99,,,-99.99,,2013-04-02 14:43:00,
2013-04-02 15:49:00,36.7,-99.9,29.09,NE,45,7.0,-999.0,-999,-99.99,,,-99.99,,2013-04-02 14:49:00,
2013-04-02 15:55:00,37.2,-99.9,29.09,ESE,112,9.0,-999.0,-999,-99.99,,,-99.99,,2013-04-02 14:55:00,
2013-04-02 16:02:00,37.7,-99.9,29.09,WNW,292,4.0,-999.0,-999,-99.99,,,-99.99,,2013-04-02 15:02:00,
2013-04-02 16:08:00,39.0,-99.9,29.09,SE,135,8.0,-999.0,-999,-99.99,,,-99.99,,2013-04-02 15:08:00,
2013-04-02 16:14:00,40.7,-99.9,29.09,ESE,112,5.0,-999.0,-999,-99.99,,,-99.99,,2013-04-02 15:14:00,
2013-04-02 16:21:00,41.5,-99.9,29.09,WSW,247,6.0,-999.0,-999,-99.99,,,-99.99,,2013-04-02 15:21:00,
2013-04-02 16:27:00,41.7,-99.9,29.09,SE,135,9.0,-999.0,-999,-99.99,,,-99.99,,2013-04-02 15:27:00,
2013-04-02 16:34:00,42.0,-99.9,29.09,SSW,202,-999.0,-999.0,-999,-99.99,,,-99.99,,2013-04-02 15:34:00,
2013-04-02 16:40:00,41.8,-99.9,29.09,ESE,112,7.0,-999.0,-999,-99.99,,,-99.99,,2013-04-02 15:40:00,
2013-04-02 16:51:00,41.5,-99.9,29.09,SSW,202,4.0,-999.0,-999,-99.99,,,-99.99,,2013-04-02 15:51:00,
2013-04-02 16:59:00,40.1,-99.9,29.09,ENE,67,9.0,-999.0,-999,-99.99,,,-99.99,,2013-04-02 15:59:00,
2013-04-02 17:06:00,39.3,-99.9,29.09,SE,135,11.0,-999.0,-999,-99.99,,,-99.99,,2013-04-02 16:06:00,
2013-04-02 17:11:00,38.5,-99.9,29.09,SSE,157,-999.0,-999.0,-999,-99.99,,,-99.99,,2013-04-02 16:11:00,
2013-04-02 17:20:00,38.2,-99.9,29.09,SSE,157,-999.0,-999.0,-999,-99.99,,,-99.99,,2013-04-02 16:20:00,
2013-04-02 17:28:00,38.0,-99.9,29.09,ESE,112,7.0,-999.0,-999,-99.99,,,-99.99,,2013-04-02 16:28:00,
2013-04-02 17:34:00,37.5,-99.9,29.09,SE,135,8.0,-999.0,-999,-99.99,,,-99.99,,2013-04-02 16:34:00,
2013-04-02 17:41:00,37.4,-99.9,29.09,East,90,8.0,-999.0,-999,-99.99,,,-99.99,,2013-04-02 16:41:00,
2013-04-02 17:47:00,37.6,-99.9,29.09,NW,315,8.0,-999.0,-999,-99.99,,,-99.99,,2013-04-02 16:47:00,
2013-04-02 17:53:00,37.6,-99.9,29.09,ENE,67,7.0,-999.0,-999,-99.99,,,-99.99,,2013-04-02 16:53:00,
2013-04-02 18:01:00,37.2,-99.9,29.09,SE,135,-999.0,-999.0,-999,-99.99,,,-99.99,,2013-04-02 17:01:00,
2013-04-02 18:07:00,36.7,-99.9,29.09,ESE,112,6.0,-999.0,-999,-99.99,,,-99.99,,2013-04-02 17:07:00,
2013-04-02 18:13:00,36.4,-99.9,29.10,SE,135,7.0,-999.0,-999,-99.99,,,-99.99,,2013-04-02 17:13:00,
2013-04-02 18:19:00,36.3,-99.9,29.10,ESE,112,7.0,-999.0,-999,-99.99,,,-99.99,,2013-04-02 17:19:00,
2013-04-02 18:26:00,36.2,-99.9,29.10,SE,135,7.0,-999.0,-999,-99.99,,,-99.99,,2013-04-02 17:26:00,
2013-04-02 18:31:00,36.3,-99.9,29.10,NNE,22,-999.0,-999.0,-999,-99.99,,,-99.99,,2013-04-02 17:31:00,
2013-04-02 18:37:00,36.5,-99.9,29.10,ENE,67,1.0,-999.0,-999,-99.99,,,-99.99,,2013-04-02 17:37:00,
2013-04-02 18:43:00,36.7,-99.9,29.10,NE,45,4.0,-999.0,-999,-99.99,,,-99.99,,2013-04-02 17:43:00,
2013-04-02 18:49:00,36.6,-99.9,29.10,East,90,5.0,-999.0,-999,-99.99,,,-99.99,,2013-04-02 17:49:00,
2013-04-02 18:58:00,36.0,-99.9,29.11,South,180,5.0,-999.0,-999,-99.99,,,-99.99,,2013-04-02 17:58:00,
2013-04-02 19:04:00,35.4,-99.9,29.11,ENE,67,6.0,-999.0,-999,-99.99,,,-99.99,,2013-04-02 18:04:00,
2013-04-02 19:10:00,34.8,-99.9,29.11,ESE,112,2.0,-999.0,-999,-99.99,,,-99.99,,2013-04-02 18:10:00,
2013-04-02 19:19:00,33.7,-99.9,29.11,ENE,67,0.0,-999.0,-999,-99.99,,,-99.99,,2013-04-02 18:19:00,
2013-04-02 19:25:00,32.9,-99.9,29.12,NNE,22,1.0,-999.0,-999,-99.99,,,-99.99,,2013-04-02 18:25:00,
2013-04-02 19:34:00,32.0,-99.9,29.12,NNW,337,3.0,-999.0,-999,-99.99,,,-99.99,,2013-04-02 18:34:00,
2013-04-02 19:40:00,31.4,-99.9,29.12,ENE,67,3.0,-999.0,-999,-99.99,,,-99.99,,2013-04-02 18:40:00,
2013-04-02 19:47:00,31.0,-99.9,29.12,ENE,67,2.0,-999.0,-999,-99.99,,,-99.99,,2013-04-02 18:47:00,
2013-04-02 19:55:00,30.2,-99.9,29.12,ENE,67,2.0,-999.0,-999,-99.99,,,-99.99,,2013-04-02 18:55:00,
2013-04-02 20:02:00,30.1,-99.9,29.12,NE,45,2.0,-999.0,-999,-99.99,,,-99.99,,2013-04-02 19:02:00,
2013-04-02 20:08:00,30.0,-99.9,29.12,NNE,22,2.0,-999.0,-999,-99.99,,,-99.99,,2013-04-02 19:08:00,
2013-04-02 20:14:00,30.1,-99.9,29.12,ENE,67,1.0,-999.0,-999,-99.99,,,-99.99,,2013-04-02 19:14:00,
2013-04-02 20:20:00,30.3,-99.9,29.13,NE,45,2.0,-999.0,-999,-99.99,,,-99.99,,2013-04-02 19:20:00,
2013-04-02 20:29:00,31.0,-99.9,29.13,ENE,67,1.0,-999.0,-999,-99.99,,,-99.99,,2013-04-02 19:29:00,
2013-04-02 20:35:00,31.4,-99.9,29.13,NNW,337,1.0,-999.0,-999,-99.99,,,-99.99,,2013-04-02 19:35:00,
2013-04-02 20:41:00,31.7,-99.9,29.13,East,90,0.0,-999.0,-999,-99.99,,,-99.99,,2013-04-02 19:41:00,
2013-04-02 20:48:00,31.0,-99.9,29.13,East,90,0.0,-999.0,-999,-99.99,,,-99.99,,2013-04-02 19:48:00,
2013-04-02 20:57:00,30.1,-99.9,29.13,NE,45,0.0,-999.0,-999,-99.99,,,-99.99,,2013-04-02 19:57:00,
2013-04-02 21:03:00,29.6,-99.9,29.14,NNE,22,1.0,-999.0,-999,-99.99,,,-99.99,,2013-04-02 20:03:00,
2013-04-02 21:12:00,29.0,-99.9,29.14,ENE,67,4.0,-999.0,-999,-99.99,,,-99.99,,2013-04-02 20:12:00,
2013-04-02 21:18:00,28.7,-99.9,29.14,ENE,67,3.0,-999.0,-999,-99.99,,,-99.99,,2013-04-02 20:18:00,
2013-04-02 21:25:00,28.6,-99.9,29.14,ENE,67,3.0,-999.0,-999,-99.99,,,-99.99,,2013-04-02 20:25:00,
2013-04-02 21:33:00,28.5,-99.9,29.14,NE,45,3.0,-999.0,-999,-99.99,,,-99.99,,2013-04-02 20:33:00,
2013-04-02 21:39:00,28.4,-99.9,29.14,ENE,67,1.0,-999.0,-999,-99.99,,,-99.99,,2013-04-02 20:39:00,
2013-04-02 21:45:00,28.3,-99.9,29.14,ENE,67,-999.0,-999.0,-999,-99.99,,,-99.99,,2013-04-02 20:45:00,
2013-04-02 21:52:00,28.4,-99.9,29.14,ENE,67,2.0,-999.0,-999,-99.99,,,-99.99,,2013-04-02 20:52:00,
2013-04-02 21:57:00,28.3,-99.9,29.14,NE,45,2.0,-999.0,-999,-99.99,,,-99.99,,2013-04-02 20:57:00,
2013-04-02 22:04:00,28.4,-99.9,29.14,ENE,67,0.0,-999.0,-999,-99.99,,,-99.99,,2013-04-02 21:04:00,
2013-04-02 22:10:00,28.3,-99.9,29.15,NE,45,2.0,-999.0,-999,-99.99,,,-99.99,,2013-04-02 21:10:00,
2013-04-02 22:16:00,28.4,-99.9,29.15,NE,45,1.0,-999.0,-999,-99.99,,,-99.99,,2013-04-02 21:16:00,
2013-04-02 22:22:00,28.2,-99.9,29.15,ENE,67,1.0,-999.0,-999,-99.99,,,-99.99,,2013-04-02 21:22:00,
2013-04-02 22:29:00,27.8,-99.9,29.15,NNW,337,2.0,-999.0,-999,-99.99,,,-99.99,,2013-04-02 21:29:00,
2013-04-02 22:35:00,27.5,-99.9,29.15,West,270,0.0,-999.0,-999,-99.99,,,-99.99,,2013-04-02 21:35:00,
2013-04-02 22:41:00,27.3,-99.9,29.15,NE,45,1.0,-999.0,-999,-99.99,,,-99.99,,2013-04-02 21:41:00,
2013-04-02 22:50:00,27.4,-99.9,29.15,North,0,2.0,-999.0,-999,-99.99,,,-99.99,,2013-04-02 21:50:00,
2013-04-02 22:56:00,27.5,-99.9,29.15,NE,45,0.0,-999.0,-999,-99.99,,,-99.99,,2013-04-02 21:56:00,